Location: Castelbiague
(43.0361°N, 0.9246°E)
Time: 09:47:10
(UTC+00:00)

In-Cosmos 22 - Pass Details

Date: 17 June 2021
Orbit: 786 x 876 km, 81.2° (Epoch: 01 August)

Event Time Altitude Azimuth Distance (km) Brightness Sun altitude
Exits shadow 20:41:20 - 180° (S) 3,111 6.7 -9.7°
Reaches altitude 10° 20:43:18 10° 178° (S) 2,343 6.1 -10.0°
Maximum altitude 20:48:31 68° 97° (E) 849 4.1 -10.6°
Drops below altitude 10° 20:53:46 10° 15° (NNE) 2,359 7.0 -11.3°
Sets 20:56:10 0° 13° (NNE) 3,297 7.8 -11.6°
